CAPE
0 0 0 0 0 0 0 0 0 0 0 0 0 0 0 0 0 0 722 2074 1818 1704 1889 1781 1834 1773 2026 1970 1963 2056 2219 2373 2408 2326 2286 2286 2285 2291 2284 2352 2396 2396 2334 1912 1748 1560 1449 1457 1568
0 0 0 0 0 0 0 0 0 0 0 0 0 0 0 0 187 1304 1868 2336 1949 1853 1701 1574 1840 1779 1940 1878 1963 2127 2339 2357 2351 2339 2341 2323 2326 2295 2348 2346 2220 2226 2296 1899 1592 1390 1407 1578 1520
0 0 0 0 0 0 0 0 0 0 0 0 0 0 0 0 866 1014 921 2270 1792 1820 1868 1736 1807 1598 1761 1850 1970 2106 2177 2153 2216 2275 2386 2434 2357 2306 2242 2167 2061 2179 2255 1858 1498 1347 1474 1375 1216
0 0 0 0 0 0 0 0 0 0 0 0 0 0 0 0 3 1085 2478 2188 1609 1599 1622 1560 1666 1570 1722 1848 2057 2083 1954 1947 2020 2193 2328 2476 2437 2296 1954 1675 1993 2032 2077 1876 1451 1406 1356 1012 920
0 0 0 0 0 0 0 0 0 0 0 0 0 0 0 52 565 2266 2353 2008 1599 1441 1496 1470 1517 1557 1650 1664 2111 2045 1845 1866 1966 2143 2241 2337 2370 2167 1792 1463 1530 1548 1464 1422 1555 1429 1017 818 729
0 0 0 0 0 0 0 0 0 0 0 0 0 0 0 29 1277 1942 2021 2079 1777 1438 1448 1561 1533 1590 1648 1596 1686 1886 1807 1863 1950 2123 2229 2304 2133 1871 1614 1446 1400 1373 1171 1416 1309 1021 808 692 588
0 0 0 0 0 0 0 0 0 0 0 0 0 0 0 0 868 2037 2194 2172 1798 1454 1469 1678 1693 1653 1586 1632 1794 1700 1762 1865 1969 2086 2191 2092 1819 1554 1438 1366 1005 1238 1283 1124 909 646 532 533 301
0 0 0 0 0 0 0 0 0 0 0 0 0 0 0 22 548 1962 2218 2202 1848 1501 1537 1775 1984 1836 1732 1711 1608 1567 1671 1755 1838 1960 1969 1682 1559 1429 1285 995 1146 1212 1114 835 592 355 299 261 46
0 0 0 0 0 0 0 0 0 0 0 0 0 0 0 6 441 2052 2069 2196 2110 1628 1568 1684 1666 1893 1784 1669 1686 1575 1642 1696 1729 1839 1605 1310 1534 1338 1200 1028 1110 1012 780 524 333 175 87 33 1
0 0 0 0 0 0 0 0 0 0 0 0 0 0 0 0 86 1850 2187 2279 2165 1781 1727 1675 1754 1682 1552 1891 1817 1843 1905 1859 1855 1811 1556 1480 1472 1266 1126 991 912 745 478 281 151 77 27 0 0
0 0 0 0 0 0 0 0 0 0 0 0 0 0 0 0 0 983 1988 2264 2262 1999 1983 1863 1661 1708 1784 1868 1842 1890 1948 1964 1926 1797 1671 1366 1261 1131 861 907 743 458 251 81 37 5 0 0 0
0 0 0 0 0 0 0 0 0 0 0 0 0 0 0 0 0 0 597 1969 2215 2016 1856 2015 1787 1689 1732 1810 1905 2009 2090 1981 1817 1694 1605 1235 1038 752 573 811 671 409 59 9 0 0 0 0 0
0 0 0 0 0 0 0 0 0 0 0 0 0 0 0 0 0 0 0 26 1785 2156 1956 1923 1873 1824 1774 1816 1861 1810 1914 2060 1970 1743 1582 1175 925 710 519 463 410 220 20 0 0 0 0 0 0
0 0 0 0 0 0 0 0 0 0 0 0 0 0 0 0 0 0 0 0 56 2011 2039 1896 2125 1862 1884 2000 1838 1828 1835 1854 1957 1711 1515 1172 881 509 338 199 195 79 8 0 0 0 0 0 0
0 0 0 0 0 0 0 0 0 0 0 0 0 0 0 0 0 0 0 0 0 579 2065 1838 2241 1952 1930 2058 1837 1824 1906 1806 1778 1697 1391 1214 784 327 221 103 63 13 0 0 0 0 0 0 0
14 6 1 0 0 0 0 0 0 0 0 0 0 0 0 0 0 0 0 0 0 0 1596 1844 2096 2224 1983 2071 1845 1808 1708 1740 1591 1685 1402 1286 779 233 117 49 5 0 0 0 0 0 0 0 0
15 6 12 0 0 0 0 0 0 0 0 0 0 0 0 0 0 0 0 0 0 0 1022 1787 1790 2351 2097 2146 1960 1840 1635 1667 1661 1742 1543 1363 821 233 124 39 1 0 0 0 0 0 0 0 0
1 26 2 1 0 0 0 0 0 0 0 0 0 0 0 0 0 0 0 0 0 0 820 1696 1732 2184 2169 2129 2086 1934 1767 1592 1638 1679 1567 1342 935 216 95 22 0 0 0 0 0 0 0 0 0
4 0 13 0 0 3 0 0 0 0 0 0 0 0 0 0 0 0 0 0 0 0 273 1596 1751 1962 2143 1948 2179 2039 2018 1915 1708 1625 1537 1379 1107 277 136 10 0 0 0 0 0 0 0 0 0
34 48 20 1 0 21 8 0 0 0 0 0 0 0 0 0 0 0 0 0 0 0 66 1623 1693 1966 2134 1979 2111 2056 1921 1951 1893 1861 1678 1479 1376 477 207 0 0 0 0 0 0 0 0 0 0
76 58 10 1 13 52 9 5 0 0 0 0 0 0 0 0 0 0 0 0 0 0 283 1723 1716 1856 2100 2080 2033 2172 2034 1792 1946 1834 1704 1601 1470 762 267 2 0 0 0 0 0 0 0 0 0
37 103 102 38 64 39 57 50 0 0 0 0 0 0 0 0 0 0 0 0 0 0 14 1637 1887 1837 1834 2003 2025 2068 1980 1803 1755 1741 1889 1768 1473 840 541 3 0 0 0 0 0 0 0 0 0
37 64 0 3 30 17 13 35 0 0 0 0 0 0 0 0 0 0 0 0 0 0 0 1019 2235 1916 1792 1710 1812 1644 1370 1496 1602 1476 1641 1705 1512 975 670 21 0 0 0 0 0 0 0 0 0
106 127 28 7 1 0 0 15 0 0 0 0 0 0 0 0 0 0 0 0 0 0 0 5 930 2036 1921 1696 1603 1624 1456 1429 1214 1163 1518 1564 1550 1222 932 260 0 0 0 0 0 0 0 0 0
57 69 34 6 0 1 0 9 0 0 0 0 0 0 0 0 0 0 0 0 0 0 0 0 0 0 0 1 537 1168 1214 1206 1039 1213 1312 1451 1229 1401 1229 848 0 0 0 0 0 0 0 0 0
8 27 43 8 0 0 29 11 6 0 0 0 0 0 0 0 0 0 0 0 0 0 0 0 0 0 0 0 0 7 583 660 486 313 973 1252 1065 1155 1427 866 331 0 0 0 0 0 0 0 0
4 33 0 4 0 0 0 1 0 0 0 0 0 0 0 0 0 0 0 0 0 0 0 0 0 0 0 0 0 0 0 196 7 0 512 1143 814 889 960 833 693 27 0 0 0 0 0 0 0
4 9 22 58 28 0 0 0 4 2 3 1 0 0 0 0 0 0 0 0 0 0 0 0 0 0 0 0 0 0 0 0 1 16 146 329 557 428 519 770 675 592 11 0 0 0 0 0 0
0 0 1 0 0 6 0 0 10 13 10 7 6 4 0 0 1 0 0 0 0 0 0 0 0 0 0 0 0 0 0 0 0 0 0 0 0 1 46 260 476 535 453 15 0 0 0 0 0
4 1 0 0 0 0 0 0 0 9 11 15 19 8 1 2 0 0 0 0 0 0 0 0 0 0 0 0 0 0 0 0 0 0 0 0 0 0 0 0 72 345 314 105 0 0 0 0 0
CIN
-0 -0 -0 -0 -0 -0 -0 -0 -0 -0 -0 -0 -0 -0 -0 -0 -0 -0 -343 -344 -379 -396 -332 -292 -256 -243 -198 -231 -271 -240 -224 -213 -189 -182 -172 -159 -149 -127 -108 -75 -39 -17 -9 -22 -20 -24 -24 -2 -1
-0 -0 -0 -0 -0 -0 -0 -0 -0 -0 -0 -0 -0 -0 -0 -0 -240 -168 -187 -286 -359 -355 -337 -292 -227 -216 -167 -197 -223 -195 -185 -197 -178 -168 -157 -152 -136 -125 -105 -88 -61 -30 -17 -28 -39 -44 -32 -4 -1
-0 -0 -0 -0 -0 -0 -0 -0 -0 -0 -0 -0 -0 -0 -0 -0 -176 -216 -329 -308 -365 -340 -295 -247 -213 -209 -156 -163 -186 -170 -190 -209 -186 -168 -136 -117 -112 -110 -108 -106 -92 -51 -16 -31 -48 -55 -27 -28 -41
-0 -0 -0 -0 -0 -0 -0 -0 -0 -0 -0 -0 -0 -0 -0 -0 -49 -252 -240 -294 -375 -353 -317 -281 -222 -188 -152 -139 -147 -145 -206 -232 -209 -171 -142 -104 -89 -97 -129 -151 -101 -81 -36 -26 -52 -51 -48 -100 -104
-0 -0 -0 -0 -0 -0 -0 -0 -0 -0 -0 -0 -0 -0 -0 -252 -251 -213 -224 -273 -352 -338 -312 -278 -242 -176 -159 -160 -125 -136 -186 -220 -201 -164 -138 -113 -91 -98 -138 -170 -149 -142 -117 -72 -35 -34 -116 -153 -163
-0 -0 -0 -0 -0 -0 -0 -0 -0 -0 -0 -0 -0 -0 -0 -244 -231 -212 -238 -276 -335 -374 -310 -251 -221 -174 -164 -165 -167 -160 -165 -196 -189 -157 -127 -99 -104 -120 -143 -161 -166 -158 -168 -92 -71 -75 -140 -184 -208
-0 -0 -0 -0 -0 -0 -0 -0 -0 -0 -0 -0 -0 -0 -0 -0 -277 -233 -273 -310 -357 -351 -312 -220 -185 -162 -168 -142 -131 -187 -161 -163 -165 -150 -119 -111 -130 -160 -166 -153 -199 -163 -151 -152 -136 -167 -189 -203 -296
-0 -0 -0 -0 -0 -0 -0 -0 -0 -0 -0 -0 -0 -0 -0 -226 -323 -266 -289 -303 -362 -347 -327 -234 -152 -138 -130 -140 -132 -179 -174 -162 -162 -157 -152 -162 -156 -148 -157 -191 -155 -152 -155 -202 -217 -280 -267 -280 -414
-0 -0 -0 -0 -0 -0 -0 -0 -0 -0 -0 -0 -0 -0 -0 -209 -394 -247 -249 -226 -249 -291 -328 -321 -252 -157 -149 -144 -129 -148 -152 -159 -159 -146 -177 -188 -125 -127 -132 -167 -148 -167 -213 -268 -311 -348 -395 -445 -119
-0 -0 -0 -0 -0 -0 -0 -0 -0 -0 -0 -0 -0 -0 -0 -0 -140 -195 -215 -208 -199 -243 -289 -299 -293 -271 -215 -130 -113 -102 -81 -83 -90 -98 -124 -118 -144 -132 -155 -167 -165 -189 -271 -340 -398 -433 -513 -0 -0
-0 -0 -0 -0 -0 -0 -0 -0 -0 -0 -0 -0 -0 -0 -0 -0 -0 -191 -175 -181 -229 -261 -226 -269 -301 -274 -217 -139 -132 -95 -77 -61 -57 -76 -80 -112 -118 -133 -175 -137 -171 -243 -341 -476 -553 -77 -0 -0 -0
-0 -0 -0 -0 -0 -0 -0 -0 -0 -0 -0 -0 -0 -0 -0 -0 -0 -0 -112 -214 -193 -206 -214 -237 -272 -275 -238 -173 -136 -110 -72 -65 -77 -82 -80 -144 -166 -235 -252 -153 -199 -271 -501 -635 -0 -0 -0 -0 -0
-0 -0 -0 -0 -0 -0 -0 -0 -0 -0 -0 -0 -0 -0 -0 -0 -0 -0 -0 -217 -221 -200 -208 -216 -242 -258 -248 -193 -161 -138 -113 -83 -75 -82 -98 -167 -209 -264 -294 -295 -301 -361 -563 -0 -0 -0 -0 -0 -0
-0 -0 -0 -0 -0 -0 -0 -0 -0 -0 -0 -0 -0 -0 -0 -0 -0 -0 -0 -0 -60 -239 -216 -235 -193 -240 -244 -201 -182 -176 -135 -121 -83 -97 -118 -171 -219 -319 -351 -404 -384 -423 -531 -0 -0 -0 -0 -0 -0
-0 -0 -0 -0 -0 -0 -0 -0 -0 -0 -0 -0 -0 -0 -0 -0 -0 -0 -0 -0 -0 -199 -233 -237 -187 -207 -215 -203 -195 -162 -147 -139 -125 -126 -151 -174 -240 -374 -414 -477 -466 -494 -0 -0 -0 -0 -0 -0 -0
-15 -21 -0 -0 -0 -0 -0 -0 -0 -0 -0 -0 -0 -0 -0 -0 -0 -0 -0 -0 -0 -0 -233 -249 -212 -175 -193 -167 -184 -154 -156 -149 -163 -133 -151 -161 -251 -402 -454 -491 -465 -0 -0 -0 -0 -0 -0 -0 -0
-1 -2 -0 -0 -0 -0 -0 -0 -0 -0 -0 -0 -0 -0 -0 -0 -0 -0 -0 -0 -0 -0 -282 -244 -234 -157 -172 -153 -164 -155 -167 -148 -149 -113 -134 -150 -247 -396 -442 -514 -273 -0 -0 -0 -0 -0 -0 -0 -0
-0 -0 -1 -0 -0 -0 -0 -0 -0 -0 -0 -0 -0 -0 -0 -0 -0 -0 -0 -0 -0 -0 -320 -283 -258 -173 -176 -154 -135 -114 -113 -131 -98 -109 -138 -136 -218 -407 -420 -504 -0 -0 -0 -0 -0 -0 -0 -0 -0
-178 -0 -11 -0 -0 -5 -0 -0 -0 -0 -0 -0 -0 -0 -0 -0 -0 -0 -0 -0 -0 -0 -209 -279 -253 -189 -138 -119 -82 -71 -84 -57 -61 -100 -144 -142 -178 -379 -380 -358 -0 -0 -0 -0 -0 -0 -0 -0 -0
-3 -1 -20 -0 -0 -10 -6 -0 -0 -0 -0 -0 -0 -0 -0 -0 -0 -0 -0 -0 -0 -0 -234 -303 -272 -211 -145 -134 -125 -112 -113 -101 -108 -96 -105 -137 -126 -317 -367 -0 -0 -0 -0 -0 -0 -0 -0 -0 -0
-0 -0 -1 -1 -65 -75 -4 -2 -0 -0 -0 -0 -0 -0 -0 -0 -0 -0 -0 -0 -0 -0 -314 -321 -272 -243 -166 -136 -103 -80 -47 -46 -14 -15 -50 -49 -17 -175 -374 -227 -0 -0 -0 -0 -0 -0 -0 -0 -0
-0 -0 -0 -7 -12 -25 -2 -1 -0 -0 -0 -0 -0 -0 -0 -0 -0 -0 -0 -0 -0 -0 -357 -308 -281 -273 -204 -140 -92 -81 -61 -45 -7 -17 -35 -37 -45 -175 -237 -402 -0 -0 -0 -0 -0 -0 -0 -0 -0
-0 -2 -0 -0 -0 -0 -0 -0 -0 -0 -0 -0 -0 -0 -0 -0 -0 -0 -0 -0 -0 -0 -0 -241 -269 -246 -235 -178 -158 -148 -107 -115 -136 -88 -27 -25 -45 -96 -138 -449 -0 -0 -0 -0 -0 -0 -0 -0 -0
-1 -1 -7 -0 -0 -0 -0 -0 -0 -0 -0 -0 -0 -0 -0 -0 -0 -0 -0 -0 -0 -0 -0 -462 -233 -130 -114 -125 -134 -138 -155 -126 -93 -103 -22 -10 -24 -56 -84 -262 -0 -0 -0 -0 -0 -0 -0 -0 -0
-2 -0 -0 -7 -0 -0 -0 -0 -0 -0 -0 -0 -0 -0 -0 -0 -0 -0 -0 -0 -0 -0 -0 -0 -0 -0 -0 -11 -237 -118 -140 -129 -116 -58 -37 -7 -8 -7 -21 -91 -0 -0 -0 -0 -0 -0 -0 -0 -0
-8 -0 -0 -27 -0 -1 -22 -7 -2 -0 -0 -0 -0 -0 -0 -0 -0 -0 -0 -0 -0 -0 -0 -0 -0 -0 -0 -0 -0 -26 -236 -190 -147 -336 -32 -5 -14 -17 -9 -52 -198 -0 -0 -0 -0 -0 -0 -0 -0
-2 -0 -0 -1 -0 -0 -0 -0 -0 -0 -0 -0 -0 -0 -0 -0 -0 -0 -0 -0 -0 -0 -0 -0 -0 -0 -0 -0 -0 -0 -0 -248 -37 -0 -53 -44 -40 -23 -21 -31 -63 -287 -0 -0 -0 -0 -0 -0 -0
-0 -0 -18 -8 -7 -48 -0 -0 -0 -0 -0 -0 -0 -0 -0 -0 -0 -0 -0 -0 -0 -0 -0 -0 -0 -0 -0 -0 -0 -0 -0 -0 -66 -111 -137 -73 -42 -23 -25 -26 -51 -61 -62 -0 -0 -0 -0 -0 -0
-0 -0 -0 -0 -0 -2 -12 -0 -0 -0 -0 -0 -0 -0 -0 -0 -0 -0 -0 -0 -0 -0 -0 -0 -0 -0 -0 -0 -0 -0 -0 -0 -0 -0 -0 -0 -0 -0 -19 -28 -22 -36 -40 -141 -0 -0 -0 -0 -0
-0 -0 -0 -0 -0 -0 -0 -0 -0 -0 -0 -0 -0 -0 -0 -0 -0 -0 -0 -0 -0 -0 -0 -0 -0 -0 -0 -0 -0 -0 -0 -0 -0 -0 -0 -0 -0 -0 -0 -0 -38 -5 -12 -67 -0 -0 -0 -0 -0
Wind_Speed
2 1 2 4 4 5 5 9 4 10 4 3 2 4 6 6 6 6 2 9 12 13 11 13 15 19 15 16 18 18 22 24 23 23 23 23 24 24 23 22 20 20 19 20 19 20 21 21 18
1 2 4 2 4 2 7 6 12 10 6 5 4 1 2 6 5 7 6 9 11 12 11 13 14 17 15 15 17 18 21 23 23 23 23 23 23 23 23 22 20 19 18 19 19 19 20 19 16
3 1 3 3 4 7 7 7 8 5 7 4 3 4 4 2 5 10 5 13 13 11 12 12 16 16 17 15 16 16 20 22 22 22 22 21 21 22 22 21 20 19 17 18 19 19 17 15 14
3 4 3 3 11 8 8 11 7 7 5 7 4 4 2 2 12 9 14 14 12 10 11 15 16 15 17 16 15 15 18 21 21 22 22 21 21 21 21 20 20 20 17 16 17 17 14 14 14
3 4 2 4 12 7 9 16 13 10 7 8 7 4 1 4 12 17 15 13 14 9 10 13 16 14 15 18 16 15 17 20 21 21 21 21 21 21 20 18 17 18 18 16 14 12 14 14 14
1 3 3 9 14 12 10 19 9 12 14 6 5 4 1 6 16 15 14 13 13 14 10 12 16 15 15 16 19 16 15 19 20 20 21 21 20 20 18 17 18 17 17 16 13 9 11 13 13
6 4 6 5 6 12 20 6 9 11 7 9 6 8 7 5 8 15 14 13 12 12 12 10 11 13 16 12 11 16 15 17 19 20 19 19 18 18 19 17 21 17 18 17 12 10 9 11 12
4 3 5 7 11 26 18 14 16 7 10 6 9 7 6 10 12 11 11 12 14 11 12 14 12 11 11 11 11 13 16 16 18 20 20 18 18 17 16 20 17 17 18 17 14 13 10 11 11
3 2 16 13 19 20 11 14 19 4 5 6 6 4 7 18 10 10 10 6 9 9 12 15 16 11 12 13 12 13 16 17 17 18 19 16 11 13 14 17 14 18 18 17 15 13 14 11 11
7 9 20 11 15 15 15 15 17 11 13 3 7 5 5 9 6 9 13 13 11 13 14 12 15 18 14 11 12 12 11 10 11 11 13 10 12 11 12 12 16 17 16 16 15 12 11 10 5
7 27 25 15 12 13 17 16 17 16 20 11 9 7 5 4 9 14 11 14 19 16 10 14 15 15 16 12 10 7 7 8 8 13 13 10 8 7 6 7 8 8 12 7 8 6 4 6 5
17 26 24 27 18 15 19 23 24 25 25 22 14 12 6 9 9 10 16 15 13 14 16 14 15 16 16 11 10 10 10 10 9 11 15 11 9 11 9 8 9 8 6 7 6 4 5 6 6
20 24 26 24 21 23 23 29 29 29 22 20 14 9 11 10 10 9 10 16 16 16 17 17 15 16 16 15 12 11 12 11 12 11 13 11 11 11 10 9 8 9 8 8 7 6 5 5 6
9 19 27 26 26 21 15 22 17 17 15 14 8 11 8 10 11 8 8 10 17 18 20 19 19 17 18 17 18 14 12 13 11 12 13 15 11 11 11 10 10 9 8 6 7 8 6 5 5
25 24 26 27 19 10 2 32 34 22 18 20 13 15 17 14 12 16 17 14 13 16 22 23 21 19 19 21 18 14 13 13 13 13 17 17 14 14 13 11 10 8 7 8 6 5 4 4 4
21 16 20 12 19 8 12 42 18 11 24 27 13 13 16 20 18 22 19 17 16 17 21 23 20 22 21 18 16 13 14 13 13 13 13 17 17 17 14 11 11 10 9 9 8 8 7 4 5
17 24 25 29 9 5 19 40 20 22 17 20 16 18 16 15 20 20 19 18 19 19 19 23 23 24 22 19 15 16 18 14 13 13 13 17 17 18 14 12 11 13 10 10 9 8 9 6 4
23 17 24 35 17 19 21 34 29 12 10 16 14 16 16 16 21 19 19 19 18 18 19 23 21 23 23 16 14 12 12 13 13 13 13 19 15 19 15 11 13 13 10 10 10 11 5 6 8
30 28 30 32 16 24 26 31 43 21 24 26 24 21 24 24 23 23 20 18 14 15 19 22 23 22 17 14 15 13 13 13 13 14 18 20 17 18 16 11 12 13 14 15 14 8 12 3 5
34 32 34 33 26 20 21 31 39 28 30 25 25 22 24 22 20 21 17 12 11 16 20 21 23 23 21 16 16 14 14 15 15 14 16 19 19 18 18 15 15 16 12 13 15 15 7 4 10
35 35 37 34 14 27 29 33 41 26 26 22 27 24 26 25 20 16 9 10 10 14 19 21 24 24 23 22 14 12 10 7 10 12 12 14 16 18 18 18 16 16 13 13 14 13 16 11 8
34 35 33 38 28 26 19 16 33 24 27 28 27 28 28 24 20 17 15 8 9 14 19 22 25 24 22 22 17 21 16 12 8 11 12 13 19 18 18 18 17 18 13 15 15 12 11 11 13
36 15 14 15 20 26 21 14 43 14 23 25 22 27 27 26 23 20 21 5 6 7 4 16 22 22 22 22 20 14 14 13 15 13 16 15 17 18 18 16 17 17 14 15 18 16 16 14 14
23 23 19 18 4 11 22 20 23 15 5 12 3 5 8 8 6 3 10 15 12 11 12 9 10 11 11 15 16 18 16 16 12 12 11 11 12 13 18 17 17 17 16 16 16 18 20 17 15
25 22 10 6 6 6 4 18 23 6 10 2 13 12 13 16 17 17 18 16 15 16 14 12 15 14 10 7 5 11 13 15 14 8 8 11 10 11 16 19 16 15 18 17 16 16 18 18 17
21 19 15 5 10 14 11 9 10 20 5 21 16 15 17 18 17 19 18 16 16 15 16 16 17 15 13 11 11 6 7 8 11 11 10 10 12 12 15 16 17 19 18 17 17 14 15 16 17
4 21 19 19 24 10 6 6 12 17 19 18 15 15 18 17 17 18 17 16 15 16 15 14 15 14 14 13 11 12 10 4 9 15 12 13 13 11 18 18 18 19 19 18 17 14 17 16 17
2 5 5 12 6 11 8 5 5 7 17 15 14 12 14 13 15 14 14 14 13 12 12 14 14 13 12 12 11 11 12 11 9 6 5 2 7 11 14 15 20 20 19 20 20 16 17 18 14
2 1 1 4 3 4 2 5 6 8 11 14 12 9 12 12 13 11 11 12 12 11 11 11 12 12 11 9 9 11 10 11 10 10 8 8 8 7 3 9 13 16 19 19 19 19 19 20 19
4 7 4 3 3 3 3 3 3 6 7 8 7 7 9 11 11 10 9 10 12 12 12 10 9 10 8 7 7 8 8 7 7 7 7 6 4 5 6 7 10 13 17 16 18 18 16 19 20
Wind_Direction
166 187 28 34 59 74 247 256 277 300 278 239 212 158 186 187 175 203 152 133 132 142 157 172 173 169 155 146 136 135 130 128 129 130 130 130 130 129 127 125 124 126 125 124 123 123 122 120 118
138 185 39 64 108 161 254 232 241 247 275 207 216 183 152 245 121 126 114 162 139 144 155 174 163 163 154 146 139 139 134 131 132 132 133 133 131 130 128 125 125 126 125 127 128 126 125 123 122
173 123 85 155 180 208 225 214 201 244 297 273 262 207 208 169 106 150 159 150 138 149 155 164 153 162 159 148 144 144 137 134 134 134 133 132 132 131 130 127 128 127 127 131 133 132 129 123 114
141 29 21 165 239 254 229 273 253 290 268 219 230 248 258 297 151 147 143 142 140 154 155 153 149 158 157 154 147 148 142 137 137 136 136 135 136 135 134 134 134 130 130 136 138 139 129 122 118
36 73 209 227 247 258 275 266 282 286 269 235 169 249 247 21 113 134 142 147 148 155 145 150 143 155 158 166 154 149 147 141 140 139 139 140 139 138 137 139 135 134 137 139 142 146 133 127 124
70 113 155 232 251 260 255 267 281 269 275 263 156 180 338 166 130 153 146 152 156 140 144 149 148 154 154 170 167 150 153 146 143 141 141 143 142 142 142 144 142 139 141 135 142 150 135 130 125
156 130 220 227 264 271 256 267 266 276 272 265 187 170 157 187 168 156 151 139 132 136 138 146 150 159 157 160 159 149 153 151 146 144 142 144 145 146 144 149 151 141 135 135 146 146 138 132 124
152 128 227 205 243 268 266 265 265 258 278 257 172 179 194 198 179 145 132 135 136 148 149 151 154 164 166 162 157 153 153 154 152 148 145 144 144 145 145 155 154 137 140 143 151 145 142 139 131
119 256 244 216 232 237 282 290 283 251 267 328 301 181 199 167 126 124 126 124 144 160 164 158 160 165 170 172 170 161 161 160 158 153 146 139 148 150 150 159 152 143 147 150 150 153 149 150 134
182 224 242 224 230 258 265 260 275 284 284 268 292 294 41 109 93 143 160 165 172 177 175 175 164 163 172 171 171 168 167 170 166 161 155 155 152 158 156 145 142 146 149 151 150 157 157 144 119
226 237 242 250 232 246 262 267 264 273 271 229 243 257 233 229 168 172 186 179 185 192 175 179 171 166 164 174 172 171 169 170 172 163 161 153 149 148 146 148 146 150 146 153 148 150 147 149 132
251 246 253 259 255 257 256 264 263 261 259 264 210 225 210 215 230 192 192 187 184 180 196 183 178 170 171 167 176 173 176 175 170 173 170 163 164 157 157 165 161 160 157 155 150 145 161 158 145
242 258 254 258 251 248 258 257 258 258 267 264 253 211 219 231 222 224 199 191 190 185 186 193 180 174 173 175 175 179 184 178 176 173 174 169 173 168 162 168 164 165 160 166 158 153 165 168 158
243 265 253 253 253 253 259 264 260 248 255 257 259 270 241 235 236 250 211 207 188 191 186 185 186 186 175 178 182 180 185 178 175 175 176 173 175 170 168 164 168 175 166 170 166 168 168 172 157
256 255 262 248 245 225 13 274 247 252 254 255 246 254 263 254 254 253 253 234 194 197 186 183 185 183 182 182 183 183 182 177 182 177 176 175 175 174 169 169 173 169 159 162 156 152 148 150 169
274 266 270 262 229 208 149 263 224 237 235 250 248 255 261 263 251 255 252 243 232 200 183 183 183 183 184 182 182 185 187 182 184 181 177 176 177 174 174 173 171 162 160 166 170 172 172 171 168
237 253 250 270 220 220 204 254 251 232 247 257 257 260 256 258 260 258 255 250 234 197 182 182 183 182 183 183 181 183 187 186 183 181 180 180 180 177 176 170 170 162 167 171 171 177 179 176 163
236 236 236 248 217 222 229 253 255 245 252 252 248 254 256 254 257 263 261 257 225 195 181 179 181 182 182 177 176 182 184 188 187 183 182 187 183 178 176 172 169 164 168 172 175 174 173 177 167
238 229 241 249 222 229 228 245 260 249 249 254 253 255 260 257 255 250 246 236 206 185 182 180 178 183 178 179 178 180 181 181 188 192 184 188 181 177 176 175 165 170 174 178 179 165 169 139 152
237 238 236 254 240 221 236 242 255 243 244 243 254 248 253 256 256 251 235 214 185 178 189 177 181 178 184 185 180 184 184 185 188 187 188 186 184 177 177 173 175 179 173 178 178 172 159 146 174
235 231 235 240 237 234 241 245 255 245 248 245 245 247 249 248 246 245 227 223 192 176 185 179 179 181 185 186 183 176 172 176 187 192 188 191 188 182 179 177 176 178 181 180 183 182 178 174 191
237 234 238 240 238 238 207 258 256 247 243 240 244 245 246 241 231 231 234 217 207 193 187 181 179 180 185 184 182 181 181 179 181 186 186 182 186 183 186 182 180 179 180 179 181 185 186 172 182
262 275 255 279 286 254 233 230 260 218 244 243 236 232 233 239 239 237 242 183 56 70 97 197 179 178 184 185 183 182 183 186 181 188 180 181 184 185 187 182 182 183 184 183 182 181 189 186 179
266 262 260 265 219 239 242 225 260 224 198 233 275 74 37 52 36 245 106 88 71 54 51 86 102 165 188 190 186 189 181 181 183 178 181 184 185 185 187 181 186 185 186 186 189 187 189 193 194
281 246 250 219 201 242 210 220 241 237 193 181 99 68 61 63 62 66 66 69 67 66 55 65 81 70 67 86 168 195 186 186 175 170 181 190 201 196 193 189 180 186 190 188 186 189 195 192 197
227 247 221 252 228 247 171 218 257 232 321 65 70 79 72 67 64 63 62 62 62 56 65 63 69 66 58 54 54 66 188 167 163 180 198 201 208 206 199 201 187 189 190 190 189 193 196 197 202
280 229 232 244 246 279 218 204 53 63 80 78 57 59 65 62 64 67 65 62 57 56 54 62 64 59 56 58 54 46 43 57 182 195 206 191 191 207 206 202 199 188 187 190 185 196 201 204 205
64 344 213 193 235 214 219 207 113 89 93 79 69 51 65 62 55 53 57 55 55 53 53 59 61 58 49 47 49 49 44 43 66 77 90 103 214 209 197 209 207 199 196 195 190 195 201 204 207
351 316 13 318 11 260 333 61 340 65 81 87 74 50 55 56 52 43 46 47 48 48 49 42 52 55 55 45 44 53 49 45 55 67 51 47 54 25 293 224 222 210 204 197 198 198 195 201 207
21 360 348 89 308 353 310 69 60 71 57 61 64 45 56 60 60 47 46 55 45 45 38 39 35 45 46 50 49 57 62 59 48 60 63 50 22 42 34 354 254 219 204 196 196 198 199 201 204